,,,PA_Meas_PMT16A,,PR_Meas_QMR101_102,,RH_Meas_QMH101,,SR_Meas_QMS101,,TA_Meas_QMH101,,GenWind,,GenWind,
date,time,status,PA,status,PR,status,RH,status,SR,status,TA,status,DirAvg,status,SpdAvg,
2011-11-21, 00:00:04,VALID,1003.45,VALID,0,VALID,92.0348,VALID,0,VALID,25.0858,VALID,4,VALID,0.597266,
2011-11-21, 00:01:04,VALID,1003.41,VALID,0,VALID,92.2789,VALID,0,VALID,25.0274,VALID,4,VALID,0.503516,
2011-11-21, 00:02:04,VALID,1003.41,VALID,0,VALID,92.4925,VALID,0,VALID,25.0274,VALID,4,VALID,0.356641,
2011-11-21, 00:03:04,VALID,1003.4,VALID,0,VALID,92.6375,VALID,0,VALID,24.9671,VALID,4,VALID,0.488672,
2011-11-21, 00:04:04,VALID,1003.37,VALID,0,VALID,92.7443,VALID,0,VALID,24.9476,VALID,4,VALID,0.500781,
2011-11-21, 00:05:04,VALID,1003.36,VALID,0,VALID,92.813,VALID,0,VALID,24.93,VALID,4,VALID,0.489062,
2011-11-21, 00:06:04,VALID,1003.34,VALID,0,VALID,92.935,VALID,0,VALID,24.8697,VALID,4,VALID,0.372266,
2011-11-21, 00:07:04,VALID,1003.39,VALID,0,VALID,92.9961,VALID,0,VALID,24.8308,VALID,4,VALID,0.266016,
2011-11-21, 00:08:04,VALID,1003.41,VALID,0,VALID,93.141,VALID,0,VALID,24.8522,VALID,4,VALID,0.304297,
2011-11-21, 00:09:04,VALID,1003.4,VALID,0,VALID,93.1105,VALID,0,VALID,24.7724,VALID,4,VALID,0.464844,
2011-11-21, 00:10:04,VALID,1003.39,VALID,0,VALID,93.2097,VALID,0,VALID,24.7743,VALID,4,VALID,0.195703,
2011-11-21, 00:11:04,VALID,1003.4,VALID,0,VALID,93.2859,VALID,0,VALID,24.7743,VALID,4,VALID,0.274609,
2011-11-21, 00:12:04,VALID,1003.35,VALID,0,VALID,93.2936,VALID,0.0815089,VALID,24.7335,VALID,4,VALID,0.285156,
2011-11-21, 00:13:04,VALID,1003.34,VALID,0,VALID,93.3928,VALID,0,VALID,24.7353,VALID,4,VALID,0.38125,
2011-11-21, 00:14:04,VALID,1003.32,VALID,0,VALID,93.469,VALID,0,VALID,24.7353,VALID,4,VALID,0.3375,
2011-11-21, 00:15:04,VALID,1003.32,VALID,0,VALID,93.4996,VALID,0,VALID,24.6964,VALID,4,VALID,0.440625,
2011-11-21, 00:16:04,VALID,1003.3,VALID,0,VALID,93.6216,VALID,0,VALID,24.675,VALID,4,VALID,0.596094,
2011-11-21, 00:17:04,VALID,1003.31,VALID,0,VALID,93.614,VALID,0,VALID,24.6769,VALID,4,VALID,0.463281,
2011-11-21, 00:18:04,VALID,1003.27,VALID,0,VALID,93.6903,VALID,0,VALID,24.6361,VALID,4,VALID,0.410937,
2011-11-21, 00:19:04,VALID,1003.26,VALID,0,VALID,93.6369,VALID,0,VALID,24.6574,VALID,4,VALID,0.323438,
2011-11-21, 00:20:04,VALID,1003.22,VALID,0,VALID,93.5835,VALID,0,VALID,24.6185,VALID,4,VALID,0.323047,
2011-11-21, 00:21:04,VALID,1003.16,VALID,0,VALID,93.7284,VALID,0,VALID,24.599,VALID,4,VALID,0.2375,
2011-11-21, 00:22:04,VALID,1003.14,VALID,0,VALID,93.8047,VALID,0,VALID,24.5777,VALID,4,VALID,0.258594,
2011-11-21, 00:23:04,VALID,1003.14,VALID,0,VALID,93.7895,VALID,0,VALID,24.599,VALID,4,VALID,0,
2011-11-21, 00:24:04,VALID,1003.14,VALID,0,VALID,93.82,VALID,0,VALID,24.5796,VALID,4,VALID,0,
2011-11-21, 00:25:04,VALID,1003.14,VALID,0,VALID,93.942,VALID,0,VALID,24.5582,VALID,4,VALID,0.0113281,
2011-11-21, 00:26:04,VALID,1003.16,VALID,0,VALID,94.0031,VALID,0,VALID,24.5601,VALID,4,VALID,0,
2011-11-21, 00:27:04,VALID,1003.18,VALID,0,VALID,94.0412,VALID,0,VALID,24.5777,VALID,4,VALID,0,
2011-11-21, 00:28:04,VALID,1003.19,VALID,0,VALID,94.087,VALID,0,VALID,24.5796,VALID,4,VALID,0,
2011-11-21, 00:29:04,VALID,1003.19,VALID,0,VALID,94.0946,VALID,0,VALID,24.5601,VALID,4,VALID,0,
2011-11-21, 00:30:04,VALID,1003.17,VALID,0,VALID,94.0717,VALID,0,VALID,24.5388,VALID,4,VALID,0,
2011-11-21, 00:31:04,VALID,1003.18,VALID,0,VALID,94.0717,VALID,0,VALID,24.5406,VALID,4,VALID,0,
2011-11-21, 00:32:04,VALID,1003.15,VALID,0,VALID,94.1022,VALID,0.0815089,VALID,24.5193,VALID,4,VALID,0,
2011-11-21, 00:33:04,VALID,1003.15,VALID,0,VALID,94.1251,VALID,0,VALID,24.5193,VALID,4,VALID,0.305469,
2011-11-21, 00:34:04,VALID,1003.11,VALID,0,VALID,94.1404,VALID,0,VALID,24.4998,VALID,4,VALID,0,
2011-11-21, 00:35:04,VALID,1003.15,VALID,0,VALID,94.1251,VALID,0,VALID,24.4804,VALID,4,VALID,0.0601562,
2011-11-21, 00:36:04,VALID,1003.13,VALID,0,VALID,94.1633,VALID,0,VALID,24.4822,VALID,4,VALID,0.435547,
2011-11-21, 00:37:04,VALID,1003.15,VALID,0,VALID,94.1785,VALID,0,VALID,24.4396,VALID,4,VALID,0.342969,
2011-11-21, 00:38:04,VALID,1003.15,VALID,0,VALID,94.2243,VALID,0,VALID,24.4414,VALID,4,VALID,0.0558594,
2011-11-21, 00:39:04,VALID,1003.18,VALID,0,VALID,94.2319,VALID,0,VALID,24.422,VALID,4,VALID,0.0128906,
2011-11-21, 00:40:04,VALID,1003.18,VALID,0,VALID,94.2777,VALID,0,VALID,24.4628,VALID,4,VALID,0.162109,
2011-11-21, 00:41:04,VALID,1003.19,VALID,0,VALID,94.2701,VALID,0,VALID,24.4025,VALID,4,VALID,0.401563,
2011-11-21, 00:42:04,VALID,1003.18,VALID,0,VALID,94.2777,VALID,0,VALID,24.4025,VALID,4,VALID,0.421484,
2011-11-21, 00:43:04,VALID,1003.19,VALID,0,VALID,94.2701,VALID,0,VALID,24.4025,VALID,4,VALID,0.400781,
2011-11-21, 00:44:04,VALID,1003.17,VALID,0,VALID,94.3311,VALID,0,VALID,24.3849,VALID,4,VALID,0.503906,
2011-11-21, 00:45:04,VALID,1003.14,VALID,0,VALID,94.293,VALID,0,VALID,24.383,VALID,4,VALID,0.384375,
2011-11-21, 00:46:04,VALID,1003.14,VALID,0,VALID,94.2548,VALID,0,VALID,24.3849,VALID,4,VALID,0.441016,
2011-11-21, 00:47:04,VALID,1003.13,VALID,0,VALID,94.3235,VALID,0,VALID,24.3228,VALID,4,VALID,0.349609,
2011-11-21, 00:48:04,VALID,1003.13,VALID,0,VALID,94.4074,VALID,0,VALID,24.3441,VALID,4,VALID,0.416797,
2011-11-21, 00:49:04,VALID,1003.09,VALID,0,VALID,94.3235,VALID,0,VALID,24.3441,VALID,4,VALID,0.270312,
2011-11-21, 00:50:04,VALID,1003.13,VALID,0,VALID,94.3464,VALID,0,VALID,24.3033,VALID,4,VALID,0.0820313,
2011-11-21, 00:51:04,VALID,1003.12,VALID,0,VALID,94.3387,VALID,0,VALID,24.3052,VALID,4,VALID,0,
2011-11-21, 00:52:04,VALID,1003.1,VALID,0,VALID,94.3921,VALID,0,VALID,24.3052,VALID,4,VALID,0,
2011-11-21, 00:53:04,VALID,1003.06,VALID,0,VALID,94.4684,VALID,0,VALID,24.3052,VALID,4,VALID,0,
2011-11-21, 00:54:04,VALID,1003.04,VALID,0,VALID,94.5142,VALID,0.0815089,VALID,24.3459,VALID,4,VALID,0,
2011-11-21, 00:55:04,VALID,1003.04,VALID,0,VALID,94.5371,VALID,0,VALID,24.3033,VALID,4,VALID,0,
2011-11-21, 00:56:04,VALID,1002.98,VALID,0,VALID,94.5523,VALID,0,VALID,24.3246,VALID,4,VALID,0.300391,
2011-11-21, 00:57:04,VALID,1002.95,VALID,0,VALID,94.5523,VALID,0,VALID,24.3265,VALID,4,VALID,0.142578,
2011-11-21, 00:58:04,VALID,1002.96,VALID,0,VALID,94.6057,VALID,0,VALID,24.3246,VALID,4,VALID,0.213281,
2011-11-21, 00:59:04,VALID,1002.94,VALID,0,VALID,94.5752,VALID,0,VALID,24.3441,VALID,4,VALID,0.282422,
2011-11-21, 01:00:04,VALID,1002.94,VALID,0,VALID,94.4913,VALID,0,VALID,24.3052,VALID,4,VALID,0.742578,
2011-11-21, 01:01:04,VALID,1002.95,VALID,0,VALID,94.415,VALID,0.0815089,VALID,24.2857,VALID,4,VALID,0.570703,
2011-11-21, 01:02:04,VALID,1002.93,VALID,0,VALID,94.4837,VALID,0,VALID,24.2662,VALID,4,VALID,0.600781,
2011-11-21, 01:03:04,VALID,1002.91,VALID,0,VALID,94.4913,VALID,0,VALID,24.2468,VALID,4,VALID,0.533203,
2011-11-21, 01:04:04,VALID,1002.88,VALID,0,VALID,94.5752,VALID,0,VALID,24.206,VALID,4,VALID,0.594141,
2011-11-21, 01:05:04,VALID,1002.86,VALID,0,VALID,94.6591,VALID,0,VALID,24.2468,VALID,4,VALID,0.412891,
2011-11-21, 01:06:04,VALID,1002.85,VALID,0,VALID,94.7049,VALID,0.0815089,VALID,24.2662,VALID,4,VALID,0.496094,
2011-11-21, 01:07:04,VALID,1002.84,VALID,0,VALID,94.6668,VALID,0,VALID,24.2468,VALID,4,VALID,0.369141,
2011-11-21, 01:08:04,VALID,1002.82,VALID,0,VALID,94.6363,VALID,0,VALID,24.2273,VALID,4,VALID,0.407031,
2011-11-21, 01:09:04,VALID,1002.82,VALID,0,VALID,94.7507,VALID,0,VALID,24.2468,VALID,4,VALID,0.434766,
2011-11-21, 01:10:04,VALID,1002.8,VALID,0,VALID,94.888,VALID,0,VALID,24.2857,VALID,4,VALID,0.478906,
2011-11-21, 01:11:04,VALID,1002.78,VALID,0,VALID,94.9109,VALID,0,VALID,24.3052,VALID,2,VALID,0.528906,
2011-11-21, 01:12:04,VALID,1002.73,VALID,0,VALID,94.8728,VALID,0.0815089,VALID,24.3033,VALID,2,VALID,0.432422,
2011-11-21, 01:13:04,VALID,1002.74,VALID,0,VALID,94.766,VALID,0.0815089,VALID,24.3246,VALID,2,VALID,0.575781,
2011-11-21, 01:14:04,VALID,1002.71,VALID,0,VALID,94.6973,VALID,0,VALID,24.3052,VALID,2,VALID,0.514844,
2011-11-21, 01:15:04,VALID,1002.69,VALID,0,VALID,94.7812,VALID,0.0815089,VALID,24.3052,VALID,2,VALID,0.405859,
2011-11-21, 01:16:04,VALID,1002.66,VALID,0,VALID,94.7965,VALID,0,VALID,24.3052,VALID,2,VALID,0.378125,
2011-11-21, 01:17:04,VALID,1002.68,VALID,0,VALID,94.8422,VALID,0,VALID,24.3459,VALID,2,VALID,0.464063,
2011-11-21, 01:18:04,VALID,1002.66,VALID,0,VALID,94.7965,VALID,0,VALID,24.3441,VALID,2,VALID,0.577734,
2011-11-21, 01:19:04,VALID,1002.71,VALID,0,VALID,94.7736,VALID,0,VALID,24.3441,VALID,2,VALID,0.542578,
2011-11-21, 01:20:04,VALID,1002.65,VALID,0,VALID,94.7507,VALID,0,VALID,24.3441,VALID,2,VALID,0.53125,
2011-11-21, 01:21:04,VALID,1002.65,VALID,0,VALID,94.7965,VALID,0,VALID,24.3849,VALID,1,VALID,0.515234,
2011-11-21, 01:22:04,VALID,1002.67,VALID,0,VALID,94.7125,VALID,0,VALID,24.3636,VALID,1,VALID,0.339453,
2011-11-21, 01:23:04,VALID,1002.63,VALID,0,VALID,94.7049,VALID,0,VALID,24.3849,VALID,1,VALID,0.258984,
2011-11-21, 01:24:04,VALID,1002.62,VALID,0,VALID,94.6668,VALID,0,VALID,24.3636,VALID,1,VALID,0.286328,
2011-11-21, 01:25:04,VALID,1002.63,VALID,0,VALID,94.6363,VALID,0,VALID,24.3441,VALID,1,VALID,0.28125,
2011-11-21, 01:26:04,VALID,1002.64,VALID,0,VALID,94.7202,VALID,0,VALID,24.3636,VALID,1,VALID,0.339453,
2011-11-21, 01:27:04,VALID,1002.62,VALID,0,VALID,94.7278,VALID,0,VALID,24.383,VALID,1,VALID,0.382813,
2011-11-21, 01:28:04,VALID,1002.63,VALID,0,VALID,94.7278,VALID,0,VALID,24.4043,VALID,1,VALID,0.450781,
2011-11-21, 01:29:04,VALID,1002.63,VALID,0,VALID,94.827,VALID,0,VALID,24.422,VALID,360,VALID,0.599219,
2011-11-21, 01:30:04,VALID,1002.62,VALID,0,VALID,94.6668,VALID,0,VALID,24.422,VALID,1,VALID,0.585156,
2011-11-21, 01:31:04,VALID,1002.58,VALID,0,VALID,94.4608,VALID,0,VALID,24.4025,VALID,3,VALID,0.397656,
2011-11-21, 01:32:04,VALID,1002.61,VALID,0,VALID,94.4303,VALID,0,VALID,24.4043,VALID,3,VALID,0.541797,
2011-11-21, 01:33:04,VALID,1002.55,VALID,0,VALID,94.4455,VALID,0.0815089,VALID,24.3849,VALID,3,VALID,0.575781,
2011-11-21, 01:34:04,VALID,1002.55,VALID,0,VALID,94.6439,VALID,0,VALID,24.4238,VALID,3,VALID,0.597266,
2011-11-21, 01:35:04,VALID,1002.55,VALID,0,VALID,94.7049,VALID,0,VALID,24.4433,VALID,351,VALID,0.482031,
2011-11-21, 01:36:04,VALID,1002.54,VALID,0,VALID,94.6973,VALID,0,VALID,24.4609,VALID,334,VALID,0.196094,
2011-11-21, 01:37:04,VALID,1002.53,VALID,0,VALID,94.6057,VALID,0,VALID,24.4804,VALID,334,VALID,0.320313,
2011-11-21, 01:38:04,VALID,1002.54,VALID,0,VALID,94.5371,VALID,0,VALID,24.4998,VALID,334,VALID,0.534766,
2011-11-21, 01:39:04,VALID,1002.51,VALID,0,VALID,94.3998,VALID,0,VALID,24.5193,VALID,334,VALID,0.426953,
2011-11-21, 01:40:04,VALID,1002.5,VALID,0,VALID,94.3464,VALID,0,VALID,24.5193,VALID,334,VALID,0.371094,
2011-11-21, 01:41:04,VALID,1002.52,VALID,0,VALID,94.3769,VALID,0,VALID,24.5582,VALID,340,VALID,0.507422,
2011-11-21, 01:42:04,VALID,1002.5,VALID,0,VALID,94.3998,VALID,0,VALID,24.5777,VALID,340,VALID,0.375,
2011-11-21, 01:43:04,VALID,1002.5,VALID,0,VALID,94.1785,VALID,0,VALID,24.5972,VALID,340,VALID,0.146094,
2011-11-21, 01:44:04,VALID,1002.46,VALID,0,VALID,94.1175,VALID,0,VALID,24.6166,VALID,341,VALID,0.541797,
2011-11-21, 01:45:04,VALID,1002.43,VALID,0,VALID,93.881,VALID,0,VALID,24.6166,VALID,342,VALID,0.533203,
2011-11-21, 01:46:04,VALID,1002.39,VALID,0,VALID,93.8657,VALID,0,VALID,24.6148,VALID,342,VALID,0.630078,
2011-11-21, 01:47:04,VALID,1002.38,VALID,0,VALID,93.6979,VALID,0,VALID,24.6361,VALID,348,VALID,0.625781,
2011-11-21, 01:48:04,VALID,1002.37,VALID,0,VALID,93.553,VALID,0,VALID,24.6361,VALID,337,VALID,0.812109,
2011-11-21, 01:49:04,VALID,1002.37,VALID,0,VALID,93.6292,VALID,0,VALID,24.6342,VALID,340,VALID,0.508984,
2011-11-21, 01:50:04,VALID,1002.37,VALID,0,VALID,93.5148,VALID,0,VALID,24.675,VALID,338,VALID,0.583984,
2011-11-21, 01:51:04,VALID,1002.36,VALID,0,VALID,93.3775,VALID,0,VALID,24.6945,VALID,348,VALID,0.149219,
2011-11-21, 01:52:04,VALID,1002.37,VALID,0,VALID,93.2707,VALID,0,VALID,24.7353,VALID,348,VALID,0.0398437,
2011-11-21, 01:53:04,VALID,1002.35,VALID,0,VALID,93.3012,VALID,0,VALID,24.7335,VALID,348,VALID,0.220313,
2011-11-21, 01:54:04,VALID,1002.33,VALID,0,VALID,93.1486,VALID,0,VALID,24.751,VALID,348,VALID,0,
2011-11-21, 01:55:04,VALID,1002.33,VALID,0,VALID,93.0418,VALID,0,VALID,24.7529,VALID,348,VALID,0,
2011-11-21, 01:56:04,VALID,1002.28,VALID,0,VALID,92.9579,VALID,0,VALID,24.8113,VALID,347,VALID,0.45625,
2011-11-21, 01:57:04,VALID,1002.26,VALID,0,VALID,92.6146,VALID,0,VALID,24.8113,VALID,347,VALID,0.346094,
2011-11-21, 01:58:04,VALID,1002.28,VALID,0,VALID,92.3629,VALID,0,VALID,24.79,VALID,347,VALID,0.480859,
2011-11-21, 01:59:04,VALID,1002.28,VALID,0,VALID,92.3705,VALID,0,VALID,24.7919,VALID,347,VALID,0.471875,
2011-11-21, 02:00:04,VALID,1002.26,VALID,0,VALID,92.4239,VALID,0,VALID,24.7724,VALID,348,VALID,0.4625,
2011-11-21, 02:01:04,VALID,1002.24,VALID,0,VALID,92.4391,VALID,0,VALID,24.7724,VALID,348,VALID,0.635938,
2011-11-21, 02:02:04,VALID,1002.23,VALID,0,VALID,92.4849,VALID,0,VALID,24.7919,VALID,345,VALID,0.546875,
2011-11-21, 02:03:04,VALID,1002.21,VALID,0,VALID,92.2713,VALID,0,VALID,24.8327,VALID,345,VALID,0.612109,
2011-11-21, 02:04:04,VALID,1002.18,VALID,0,VALID,91.9967,VALID,0,VALID,24.8113,VALID,347,VALID,0.498828,
2011-11-21, 02:05:04,VALID,1002.2,VALID,0,VALID,91.867,VALID,0,VALID,24.7724,VALID,344,VALID,0.516797,
2011-11-21, 02:06:04,VALID,1002.16,VALID,0,VALID,92.1416,VALID,0,VALID,24.79,VALID,344,VALID,0.45625,
2011-11-21, 02:07:04,VALID,1002.17,VALID,0,VALID,92.0501,VALID,0.0815089,VALID,24.8113,VALID,344,VALID,0.338672,
2011-11-21, 02:08:04,VALID,1002.17,VALID,0,VALID,91.928,VALID,0,VALID,24.8503,VALID,344,VALID,0.4,
2011-11-21, 02:09:04,VALID,1002.22,VALID,0,VALID,91.9738,VALID,0,VALID,24.8697,VALID,344,VALID,0.479297,
2011-11-21, 02:10:04,VALID,1002.22,VALID,0,VALID,91.7602,VALID,0,VALID,24.8697,VALID,343,VALID,0.358984,
2011-11-21, 02:11:04,VALID,1002.26,VALID,0,VALID,91.5542,VALID,0,VALID,24.8679,VALID,343,VALID,0.293359,
2011-11-21, 02:12:04,VALID,1002.23,VALID,0,VALID,91.7068,VALID,0,VALID,24.8892,VALID,341,VALID,0.498047,
2011-11-21, 02:13:04,VALID,1002.22,VALID,0,VALID,91.4169,VALID,0,VALID,24.9282,VALID,342,VALID,0.510547,
2011-11-21, 02:14:04,VALID,1002.21,VALID,0,VALID,91.3177,VALID,0,VALID,24.9282,VALID,343,VALID,0.385938,
2011-11-21, 02:15:04,VALID,1002.18,VALID,0,VALID,91.2185,VALID,0,VALID,24.8892,VALID,343,VALID,0.423828,
2011-11-21, 02:16:04,VALID,1002.17,VALID,0,VALID,91.1575,VALID,0.0815089,VALID,24.8289,VALID,348,VALID,0.524219,
2011-11-21, 02:17:04,VALID,1002.14,VALID,0,VALID,91.2338,VALID,0,VALID,24.7937,VALID,348,VALID,0.426172,
2011-11-21, 02:18:04,VALID,1002.1,VALID,0,VALID,91.5618,VALID,0,VALID,24.714,VALID,348,VALID,0.526172,
2011-11-21, 02:19:04,VALID,1002.11,VALID,0,VALID,91.9738,VALID,0,VALID,24.675,VALID,348,VALID,0.583203,
2011-11-21, 02:20:04,VALID,1002.09,VALID,0,VALID,92.2789,VALID,0,VALID,24.6342,VALID,348,VALID,0.645703,
2011-11-21, 02:21:04,VALID,1002.11,VALID,0,VALID,92.5688,VALID,0,VALID,24.6556,VALID,348,VALID,0.442187,
2011-11-21, 02:22:04,VALID,1002.11,VALID,0,VALID,92.5688,VALID,0,VALID,24.6769,VALID,347,VALID,0.592969,
2011-11-21, 02:23:04,VALID,1002.11,VALID,0,VALID,92.5612,VALID,0,VALID,24.6556,VALID,347,VALID,0.481641,
2011-11-21, 02:24:04,VALID,1002.12,VALID,0,VALID,92.668,VALID,0,VALID,24.6945,VALID,350,VALID,0.526172,
2011-11-21, 02:25:04,VALID,1002.15,VALID,0,VALID,92.5765,VALID,0,VALID,24.7121,VALID,353,VALID,0.398047,
2011-11-21, 02:26:04,VALID,1002.12,VALID,0,VALID,92.4925,VALID,0,VALID,24.7705,VALID,351,VALID,0.682422,
2011-11-21, 02:27:04,VALID,1002.12,VALID,0,VALID,92.2179,VALID,0,VALID,24.8503,VALID,347,VALID,0.521484,
2011-11-21, 02:28:04,VALID,1002.1,VALID,0,VALID,91.8594,VALID,0,VALID,24.9087,VALID,345,VALID,0.65,
2011-11-21, 02:29:04,VALID,1002.08,VALID,0,VALID,91.4245,VALID,0,VALID,24.9476,VALID,344,VALID,0.631641,
2011-11-21, 02:30:04,VALID,1002.07,VALID,0,VALID,91.2185,VALID,0,VALID,24.9866,VALID,345,VALID,0.589453,
2011-11-21, 02:31:04,VALID,1002.07,VALID,0,VALID,91.1728,VALID,0,VALID,25.045,VALID,348,VALID,0.832031,
2011-11-21, 02:32:04,VALID,1002.02,VALID,0,VALID,90.654,VALID,0,VALID,25.0839,VALID,345,VALID,0.721094,
2011-11-21, 02:33:04,VALID,1002.01,VALID,0,VALID,90.3641,VALID,0,VALID,25.1248,VALID,345,VALID,0.755469,
2011-11-21, 02:34:04,VALID,1002.03,VALID,0,VALID,90.4175,VALID,0,VALID,25.1034,VALID,345,VALID,0.616016,
2011-11-21, 02:35:04,VALID,1002.04,VALID,0,VALID,90.3259,VALID,0,VALID,25.1442,VALID,341,VALID,0.565625,
2011-11-21, 02:36:04,VALID,1002.06,VALID,0,VALID,90.1505,VALID,0,VALID,25.1229,VALID,333,VALID,0.486328,
2011-11-21, 02:37:04,VALID,1002.04,VALID,0,VALID,90.2191,VALID,0,VALID,25.1423,VALID,342,VALID,0.503125,
2011-11-21, 02:38:04,VALID,1002.04,VALID,0,VALID,90.1963,VALID,0,VALID,25.1813,VALID,345,VALID,0.488672,
2011-11-21, 02:39:04,VALID,1002.05,VALID,0,VALID,89.9979,VALID,0,VALID,25.2202,VALID,335,VALID,0.508203,
2011-11-21, 02:40:04,VALID,1002.04,VALID,0,VALID,89.7309,VALID,0,VALID,25.2786,VALID,338,VALID,0.533594,
2011-11-21, 02:41:04,VALID,1002.01,VALID,0,VALID,89.6088,VALID,0,VALID,25.2981,VALID,342,VALID,0.560156,
2011-11-21, 02:42:04,VALID,1002,VALID,0,VALID,89.4028,VALID,0,VALID,25.3157,VALID,343,VALID,0.523828,
2011-11-21, 02:43:04,VALID,1001.99,VALID,0,VALID,89.2198,VALID,0,VALID,25.376,VALID,340,VALID,0.635156,
2011-11-21, 02:44:04,VALID,1001.99,VALID,0,VALID,89.1664,VALID,0,VALID,25.3955,VALID,341,VALID,0.34375,
2011-11-21, 02:45:04,VALID,1001.98,VALID,0,VALID,89.1511,VALID,0,VALID,25.4149,VALID,341,VALID,0.453906,
2011-11-21, 02:46:04,VALID,1001.94,VALID,0,VALID,89.2655,VALID,0,VALID,25.4149,VALID,341,VALID,0.340234,
2011-11-21, 02:47:04,VALID,1001.94,VALID,0,VALID,89.2655,VALID,0,VALID,25.4149,VALID,341,VALID,0.0808594,
2011-11-21, 02:48:04,VALID,1001.93,VALID,0,VALID,89.4257,VALID,0,VALID,25.3935,VALID,341,VALID,0.500781,
2011-11-21, 02:49:04,VALID,1001.91,VALID,0,VALID,89.3876,VALID,0,VALID,25.4149,VALID,336,VALID,0.203125,
2011-11-21, 02:50:04,VALID,1001.9,VALID,0,VALID,89.441,VALID,0,VALID,25.4344,VALID,338,VALID,0.338281,
2011-11-21, 02:51:04,VALID,1001.91,VALID,0,VALID,89.3266,VALID,0,VALID,25.4539,VALID,343,VALID,0.361719,
2011-11-21, 02:52:04,VALID,1001.94,VALID,0,VALID,89.2732,VALID,0,VALID,25.4734,VALID,343,VALID,0,
2011-11-21, 02:53:04,VALID,1001.95,VALID,0,VALID,89.3113,VALID,0,VALID,25.4734,VALID,344,VALID,0.473437,
2011-11-21, 02:54:04,VALID,1001.96,VALID,0,VALID,89.3189,VALID,0,VALID,25.4928,VALID,344,VALID,0.250781,
2011-11-21, 02:55:04,VALID,1001.95,VALID,0,VALID,89.3418,VALID,0,VALID,25.4928,VALID,337,VALID,0.046875,
2011-11-21, 02:56:04,VALID,1001.98,VALID,0,VALID,89.3418,VALID,0,VALID,25.4928,VALID,337,VALID,0,
2011-11-21, 02:57:04,VALID,1001.97,VALID,0,VALID,89.5478,VALID,0,VALID,25.4928,VALID,358,VALID,0.345703,
2011-11-21, 02:58:04,VALID,1001.98,VALID,0,VALID,89.4715,VALID,0,VALID,25.5318,VALID,355,VALID,0.226563,
2011-11-21, 02:59:04,VALID,1001.98,VALID,0,VALID,89.3647,VALID,0,VALID,25.5318,VALID,356,VALID,0.188672,
2011-11-21, 03:00:04,VALID,1001.96,VALID,0,VALID,89.3952,VALID,0,VALID,25.5318,VALID,356,VALID,0.55,
2011-11-21, 03:01:04,VALID,1001.95,VALID,0,VALID,89.3113,VALID,0.0815089,VALID,25.5513,VALID,347,VALID,0.589453,
2011-11-21, 03:02:04,VALID,1001.89,VALID,0,VALID,89.2503,VALID,0,VALID,25.5513,VALID,348,VALID,0.478125,
2011-11-21, 03:03:04,VALID,1001.88,VALID,0,VALID,89.1664,VALID,0,VALID,25.5921,VALID,344,VALID,0.682813,
2011-11-21, 03:04:04,VALID,1001.85,VALID,0,VALID,89.1511,VALID,0,VALID,25.5707,VALID,348,VALID,0.555859,
2011-11-21, 03:05:04,VALID,1001.85,VALID,0,VALID,89.0214,VALID,0,VALID,25.5707,VALID,347,VALID,0.1125,
2011-11-21, 03:06:04,VALID,1001.87,VALID,0,VALID,89.1969,VALID,0,VALID,25.5707,VALID,348,VALID,0.475,
2011-11-21, 03:07:04,VALID,1001.84,VALID,0,VALID,89.2426,VALID,0,VALID,25.5707,VALID,350,VALID,0.839453,
2011-11-21, 03:08:04,VALID,1001.84,VALID,0,VALID,89.1206,VALID,0,VALID,25.6311,VALID,347,VALID,0.593359,
2011-11-21, 03:09:04,VALID,1001.85,VALID,0,VALID,88.9985,VALID,0,VALID,25.6292,VALID,348,VALID,0.375781,
2011-11-21, 03:10:04,VALID,1001.86,VALID,0,VALID,88.9756,VALID,0,VALID,25.6486,VALID,349,VALID,0.391016,
2011-11-21, 03:11:04,VALID,1001.88,VALID,0,VALID,88.8917,VALID,0,VALID,25.6895,VALID,335,VALID,0.330078,
2011-11-21, 03:12:04,VALID,1001.87,VALID,0,VALID,88.9146,VALID,0,VALID,25.6681,VALID,344,VALID,0.451953,
2011-11-21, 03:13:04,VALID,1001.88,VALID,0,VALID,88.9222,VALID,0,VALID,25.6681,VALID,338,VALID,0.511328,
2011-11-21, 03:14:04,VALID,1001.85,VALID,0,VALID,88.8688,VALID,0.0815089,VALID,25.6876,VALID,337,VALID,0.701172,
2011-11-21, 03:15:04,VALID,1001.87,VALID,0,VALID,88.8765,VALID,0,VALID,25.6681,VALID,329,VALID,0.450781,
2011-11-21, 03:16:04,VALID,1001.84,VALID,0,VALID,88.8765,VALID,0,VALID,25.709,VALID,339,VALID,0.513281,
2011-11-21, 03:17:04,VALID,1001.87,VALID,0,VALID,88.8688,VALID,0,VALID,25.6895,VALID,348,VALID,0.443359,
2011-11-21, 03:18:04,VALID,1001.85,VALID,0,VALID,88.9222,VALID,0,VALID,25.67,VALID,339,VALID,0.541797,
2011-11-21, 03:19:04,VALID,1001.85,VALID,0,VALID,88.8688,VALID,0.0815089,VALID,25.6681,VALID,339,VALID,0.0710938,
2011-11-21, 03:20:04,VALID,1001.84,VALID,0,VALID,89.0443,VALID,0,VALID,25.6895,VALID,342,VALID,0.673437,
2011-11-21, 03:21:04,VALID,1001.82,VALID,0,VALID,89.0901,VALID,0,VALID,25.6681,VALID,347,VALID,0.486328,
2011-11-21, 03:22:04,VALID,1001.85,VALID,0,VALID,89.1282,VALID,0.0815089,VALID,25.6681,VALID,345,VALID,0.273828,
2011-11-21, 03:23:04,VALID,1001.84,VALID,0,VALID,89.113,VALID,0.0815089,VALID,25.6486,VALID,338,VALID,0,
2011-11-21, 03:24:04,VALID,1001.85,VALID,0,VALID,89.174,VALID,0,VALID,25.6292,VALID,338,VALID,0.0714844,
2011-11-21, 03:25:04,VALID,1001.85,VALID,0,VALID,89.3113,VALID,0.0815089,VALID,25.6292,VALID,335,VALID,0.45625,
2011-11-21, 03:26:04,VALID,1001.85,VALID,0,VALID,89.4105,VALID,0,VALID,25.6311,VALID,337,VALID,0.455469,
2011-11-21, 03:27:04,VALID,1001.86,VALID,0,VALID,89.5936,VALID,0,VALID,25.6097,VALID,348,VALID,0.569922,
2011-11-21, 03:28:04,VALID,1001.89,VALID,0,VALID,89.5478,VALID,0,VALID,25.6097,VALID,360,VALID,0.554297,
2011-11-21, 03:29:04,VALID,1001.87,VALID,0,VALID,89.5859,VALID,0,VALID,25.6292,VALID,353,VALID,0.830859,
2011-11-21, 03:30:04,VALID,1001.89,VALID,0,VALID,89.4028,VALID,0,VALID,25.6681,VALID,355,VALID,0.899219,
2011-11-21, 03:31:04,VALID,1001.88,VALID,0,VALID,89.296,VALID,0,VALID,25.709,VALID,353,VALID,0.485156,
2011-11-21, 03:32:04,VALID,1001.89,VALID,0,VALID,89.2198,VALID,0,VALID,25.6876,VALID,344,VALID,0.692969,
2011-11-21, 03:33:04,VALID,1001.87,VALID,0,VALID,89.1664,VALID,0,VALID,25.709,VALID,346,VALID,0.311719,
2011-11-21, 03:34:04,VALID,1001.86,VALID,0,VALID,89.2579,VALID,0,VALID,25.7071,VALID,339,VALID,0.690234,
2011-11-21, 03:35:04,VALID,1001.87,VALID,0,VALID,89.1816,VALID,0,VALID,25.709,VALID,347,VALID,0.479297,
2011-11-21, 03:36:04,VALID,1001.84,VALID,0,VALID,89.1969,VALID,0,VALID,25.7071,VALID,348,VALID,0.582812,
2011-11-21, 03:37:04,VALID,1001.83,VALID,0,VALID,89.1816,VALID,0,VALID,25.6876,VALID,352,VALID,0.158984,
2011-11-21, 03:38:04,VALID,1001.83,VALID,0,VALID,89.2884,VALID,0,VALID,25.6876,VALID,351,VALID,0.390234,
2011-11-21, 03:39:04,VALID,1001.8,VALID,0,VALID,89.2808,VALID,0,VALID,25.6895,VALID,349,VALID,0.477344,
2011-11-21, 03:40:04,VALID,1001.81,VALID,0,VALID,89.2503,VALID,0,VALID,25.67,VALID,349,VALID,0.10625,
2011-11-21, 03:41:04,VALID,1001.81,VALID,0,VALID,89.3189,VALID,0,VALID,25.6311,VALID,349,VALID,0.05625,
2011-11-21, 03:42:04,VALID,1001.8,VALID,0,VALID,89.3647,VALID,0,VALID,25.6097,VALID,346,VALID,0.217578,
2011-11-21, 03:43:04,VALID,1001.81,VALID,0,VALID,89.4486,VALID,0,VALID,25.5902,VALID,350,VALID,0.561719,
2011-11-21, 03:44:04,VALID,1001.8,VALID,0,VALID,89.4028,VALID,0.0815089,VALID,25.6116,VALID,348,VALID,0.576172,
2011-11-21, 03:45:04,VALID,1001.81,VALID,0,VALID,89.441,VALID,0,VALID,25.6116,VALID,348,VALID,0.564062,
2011-11-21, 03:46:04,VALID,1001.87,VALID,0,VALID,89.4105,VALID,0,VALID,25.5902,VALID,348,VALID,0,